Location: Sweet Grass
(48.9965°N, 111.9649°W)
Time: 03:37:24
(UTC+00:00)

Envisat - Pass Details

Date: 04 December 2022
Orbit: 763 x 765 km, 98.2° (Epoch: 28 January)

Event Time Altitude Azimuth Distance (km) Brightness Sun altitude
Rises 12:02:17 0° 12° (NNE) 3,246 6.4 -28.9°
Reaches altitude 10° 12:04:36 10° 11° (N) 2,315 5.6 -28.5°
Enters shadow 12:06:52 27° 8° (N) 1,446 4.4 -28.1°
